Marshfield, MA

6:19 PM EDT on August 17, 2017 (GMT -0400)
Marshfield

Weather History for KGHG - December, 2014

Change the Weather History Date:

Wednesday, December 3, 2014

  Actual Average (KPYM) Record (KPYM)
Temperature  
Mean Temperature 47 °F -  
Max Temperature 53 °F 48 °F 67 °F (1982)
Min Temperature 39 °F 25 °F 5 °F (1989)
Degree Days  
Heating Degree Days 18    
Moisture  
Dew Point 46 °F    
Average Humidity 88    
Maximum Humidity 100    
Minimum Humidity 65    
Precipitation  
Precipitation 0.14 in - - ()
Sea Level Pressure  
Sea Level Pressure 30.06 in    
Wind  
Wind Speed 10 mph (SW)    
Max Wind Speed 17 mph    
Max Gust Speed 30 mph    
Visibility 8 miles    
Events Rain    
Averages and records for this station are not official NWS values.
T = Trace of Precipitation, MM = Missing Value Source: NWS Daily Summary

Daily Weather History Graph

Daily Weather History Graph

Search for Another Location

Airport or City:

Trip Planner

Search our weather history database for the weather conditions in past years. The results will help you decide how hot, cold, wet, or windy it might be!

Date:

Astronomy

Dec. 03, 2014 Rise Set
Actual Time 6:53 AM EST 4:11 PM EST
Civil Twilight 6:22 AM EST 4:42 PM EST
Nautical Twilight 5:47 AM EST 5:17 PM EST
Astronomical Twilight 5:13 AM EST 5:51 PM EST
Moon 2:32 PM EST (12/3) 3:34 AM EST (12/3)
Length of Visible Light 10h 20m
Length of Day
9h 17m
Waxing Gibbous, 91% of the Moon is Illuminated
Dec 3
Waxing Gibbous
Dec 6
Full
Dec 14
Last Quarter
Dec 21
New
Dec 28
First Quarter

Hourly Weather History & Observations

Time (EST) Temp. Windchill Dew Point Humidity Pressure Visibility Wind Dir Wind Speed Gust Speed Precip Events Conditions
12:15 AM 44.6 °F 38.1 °F 42.8 °F 93% 30.38 in 10.0 mi ESE 13.8 mph 23.0 mph N/A   Overcast
12:35 AM 44.6 °F 38.8 °F 42.8 °F 93% 30.36 in 3.0 mi ESE 11.5 mph 17.3 mph 0.01 in   Overcast
12:55 AM 44.6 °F 39.2 °F 42.8 °F 93% 30.34 in 8.0 mi ESE 10.4 mph 17.3 mph 0.02 in   Overcast
1:15 AM 46.4 °F 40.7 °F 44.6 °F 93% 30.32 in 3.0 mi ESE 12.7 mph 20.7 mph 0.03 in Rain Light Rain
1:35 AM 46.4 °F 41.5 °F 44.6 °F 93% 30.30 in 3.0 mi ESE 10.4 mph 16.1 mph 0.08 in   Overcast
1:55 AM 46.4 °F 41.5 °F 46.4 °F 100% 30.29 in 5.0 mi SE 10.4 mph 19.6 mph 0.09 in   Overcast
2:15 AM 46.4 °F 41.5 °F 46.4 °F 100% 30.28 in 9.0 mi SE 10.4 mph 17.3 mph N/A   Overcast
2:35 AM 48.2 °F - 46.4 °F 93% 30.26 in 4.0 mi SE 10.4 mph - N/A   Light Drizzle
2:55 AM 48.2 °F - 46.4 °F 93% 30.24 in 5.0 mi SE 10.4 mph - 0.01 in   Overcast
3:15 AM 48.2 °F - 48.2 °F 100% 30.22 in 4.0 mi SE 10.4 mph 16.1 mph N/A   Overcast
3:35 AM - - - N/A% 30.20 in 4.0 mi SSE 8.1 mph - N/A   Haze
3:55 AM - - - N/A% 30.18 in 6.0 mi SSE 8.1 mph - 0.01 in   Haze
4:15 AM - - - N/A% 30.16 in 4.0 mi South 8.1 mph - N/A   Haze
4:35 AM - - - N/A% 30.15 in 10.0 mi SSE 6.9 mph - N/A   Overcast
4:55 AM - - - N/A% 30.13 in 10.0 mi South 3.5 mph - N/A   Overcast
5:15 AM - - - N/A% 30.12 in 4.0 mi South 3.5 mph - N/A   Haze
5:35 AM - - - N/A% 30.11 in 1.2 mi Calm Calm - N/A   Overcast
5:55 AM - - - N/A% 30.10 in 1.5 mi West 3.5 mph - N/A   Overcast
6:15 AM - - - N/A% 30.10 in 1.5 mi WSW 3.5 mph - N/A   Overcast
6:35 AM - - - N/A% 30.10 in 1.5 mi West 3.5 mph - N/A   Overcast
6:55 AM - - - N/A% 30.11 in 2.0 mi West 3.5 mph - N/A   Overcast
7:15 AM - - - N/A% 30.11 in 1.0 mi Calm Calm - N/A   Overcast
7:35 AM - - - N/A% 30.12 in 1.0 mi West 3.5 mph - N/A   Overcast
7:55 AM - - - N/A% 30.12 in 1.0 mi West 5.8 mph - N/A   Overcast
8:15 AM - - - N/A% 30.12 in 1.0 mi SW 3.5 mph - N/A   Overcast
8:35 AM - - - N/A% 30.12 in 1.2 mi West 4.6 mph - N/A   Overcast
8:55 AM - - - N/A% 30.12 in 2.5 mi Calm Calm - N/A   Overcast
9:15 AM - - - N/A% 30.11 in 8.0 mi WSW 6.9 mph - N/A   Overcast
9:35 AM - - - N/A% 30.11 in 10.0 mi SSW 6.9 mph - N/A   Overcast
9:55 AM - - - N/A% 30.11 in 10.0 mi SW 5.8 mph - N/A   Overcast
10:15 AM - - - N/A% 30.10 in 10.0 mi SSW 11.5 mph 17.3 mph N/A   Overcast
10:35 AM - - - N/A% 30.09 in 10.0 mi SSW 8.1 mph - N/A   Overcast
10:55 AM 50.0 °F - 48.2 °F 94% 30.08 in 10.0 mi SW 10.4 mph - N/A   Overcast
11:15 AM - - - N/A% 30.06 in 10.0 mi SSW 6.9 mph - N/A   Overcast
11:35 AM - - - N/A% 30.04 in 10.0 mi SSW 9.2 mph - N/A   Overcast
11:55 AM 51.8 °F - 50.0 °F 94% 30.02 in 10.0 mi SSW 12.7 mph 17.3 mph N/A   Overcast
12:15 PM 51.8 °F - 50.0 °F 94% 30.01 in 10.0 mi SW 11.5 mph 21.9 mph N/A   Overcast
12:35 PM 53.6 °F - 50.0 °F 88% 30.01 in 10.0 mi SW 10.4 mph 21.9 mph N/A   Overcast
12:55 PM 53.6 °F - 50.0 °F 88% 30.00 in 10.0 mi SW 11.5 mph 24.2 mph N/A   Overcast
1:15 PM 53.6 °F - 50.0 °F 88% 29.98 in 8.0 mi SW 12.7 mph 21.9 mph N/A Rain Light Rain
1:35 PM 53.6 °F - 51.8 °F 94% 29.97 in 10.0 mi SSW 10.4 mph 20.7 mph N/A   Overcast
1:55 PM 53.6 °F - 51.8 °F 94% 29.95 in 10.0 mi SSW 15.0 mph 25.3 mph N/A   Overcast
2:15 PM 53.6 °F - 51.8 °F 94% 29.95 in 10.0 mi SW 17.3 mph 27.6 mph N/A   Overcast
2:35 PM 53.6 °F - 50.0 °F 88% 29.93 in 10.0 mi SSW 15.0 mph 25.3 mph N/A   Overcast
2:55 PM 53.6 °F - 50.0 °F 88% 29.93 in 10.0 mi SW 13.8 mph 23.0 mph N/A   Overcast
3:15 PM 53.6 °F - 50.0 °F 88% 29.93 in 10.0 mi SSW 12.7 mph 21.9 mph N/A   Overcast
3:35 PM 53.6 °F - 50.0 °F 88% 29.92 in 10.0 mi SW 13.8 mph 24.2 mph N/A   Overcast
3:55 PM 53.6 °F - 50.0 °F 88% 29.93 in 9.0 mi SW 12.7 mph 20.7 mph N/A   Overcast
4:15 PM 51.8 °F - 50.0 °F 94% 29.91 in 10.0 mi SW 15.0 mph 24.2 mph N/A   Overcast
4:35 PM 51.8 °F - 51.8 °F 100% 29.91 in 10.0 mi SW 13.8 mph 28.8 mph N/A   Overcast
4:55 PM 53.6 °F - 51.8 °F 94% 29.91 in 10.0 mi SW 15.0 mph 27.6 mph N/A   Overcast
5:15 PM 53.6 °F - 51.8 °F 94% 29.89 in 10.0 mi SW 10.4 mph 24.2 mph N/A   Overcast
5:35 PM 53.6 °F - 51.8 °F 94% 29.90 in 10.0 mi SW 10.4 mph 19.6 mph N/A   Light Drizzle
5:55 PM 51.8 °F - 51.8 °F 100% 29.91 in 10.0 mi SW 17.3 mph 27.6 mph 0.01 in   Overcast
6:15 PM 51.8 °F - 50.0 °F 94% 29.91 in 9.0 mi WSW 17.3 mph 27.6 mph N/A   Overcast
6:35 PM 51.8 °F - 50.0 °F 94% 29.91 in 10.0 mi WSW 10.4 mph 26.5 mph N/A   Overcast
6:55 PM 51.8 °F - 48.2 °F 88% 29.90 in 10.0 mi WSW 10.4 mph 27.6 mph N/A   Overcast
7:15 PM 51.8 °F - 48.2 °F 88% 29.91 in 10.0 mi WSW 15.0 mph 25.3 mph N/A   Overcast
7:35 PM 51.8 °F - 46.4 °F 82% 29.92 in 10.0 mi WSW 12.7 mph 29.9 mph N/A   Overcast
7:55 PM 50.0 °F - 44.6 °F 82% 29.93 in 10.0 mi WSW 13.8 mph 20.7 mph N/A   Mostly Cloudy
8:15 PM 50.0 °F - 44.6 °F 82% 29.95 in 10.0 mi WSW 12.7 mph 28.8 mph N/A   Mostly Cloudy
8:35 PM 48.2 °F - 42.8 °F 82% 29.97 in 10.0 mi West 11.5 mph 19.6 mph N/A   Mostly Cloudy
8:55 PM 48.2 °F - 41.0 °F 76% 29.98 in 10.0 mi West 13.8 mph 25.3 mph N/A   Mostly Cloudy
9:15 PM 48.2 °F - 39.2 °F 71% 29.99 in 10.0 mi WSW 9.2 mph 20.7 mph N/A   Scattered Clouds
9:35 PM - - - N/A% 30.00 in 10.0 mi West 10.4 mph 18.4 mph N/A   Clear
9:55 PM 46.4 °F 40.7 °F 37.4 °F 71% 30.02 in 10.0 mi West 12.7 mph 21.9 mph N/A   Partly Cloudy
10:15 PM 44.6 °F 39.2 °F 37.4 °F 76% 30.05 in 10.0 mi West 10.4 mph 24.2 mph N/A   Mostly Cloudy
10:35 PM 42.8 °F 36.6 °F 35.6 °F 76% 30.06 in 10.0 mi WNW 11.5 mph 21.9 mph N/A   Mostly Cloudy
10:55 PM 42.8 °F 35.8 °F 32.0 °F 66% 30.06 in 10.0 mi West 13.8 mph 24.2 mph N/A   Clear
11:15 PM 42.8 °F 36.6 °F 32.0 °F 66% 30.07 in 10.0 mi West 11.5 mph 24.2 mph N/A   Clear
11:35 PM 41.0 °F 35.8 °F 30.2 °F 65% 30.08 in 10.0 mi West 8.1 mph 24.2 mph N/A   Clear
11:55 PM 39.2 °F 33.6 °F 30.2 °F 70% 30.09 in 10.0 mi West 8.1 mph 23.0 mph N/A   Clear